FREGAT DEB, 45979

Orbit data source: Space-Track

FREGAT DEB, 45979 is space debris in LEO originally from a launch on Mon, 18 Jul 2011 UTC launched from the Tyuratam Missile And Space Complex (TTMTR). Debris objects in space refer to the collection of defunct objects orbiting the Earth. Examples of debris include non-operational satellites, rocket bodies, and fragments generated from explosions, collisions, or faulty payload assembly.

Loading next visibility...
Identifier
45979, 2011-037GL
Orbit
LEO
Country
Flag of CISCIS
Related business
Manufacturer
Lavochkin
Mission
Spacecraft
Bus & Motor
Unknown
Mass
Unknown
Launch date (UTC)
2011-07-18 (14 years ago)
Launch vehicle
Unknown
Launch site
Tyuratam Missile And Space Complex (TTMTR)
Object type
Payload
Rocket body
Debris
Shape & HBR
Unknown shape, 0.1 m
Radar Cross Section
Small (<0.1 m²)

Expand to show TLE details & history
Last TLE update: 18 hours ago

TLE from 18 hours ago
0 FREGAT DEB
1 45979U 11037GL  25297.55940360  .00000115  00000-0  34174-3 0  9992
2 45979  51.5109 358.5095 1893732  54.7860 321.5890 10.63002062203884
Epoch: 2025-10-24T13:25Z
TLE epoch observation values (Epoch: 2025-10-24T13:25:32.471Z)
Latitude
0.00002°
Longitude
123.92166°
Altitude
1,215.45 km
Speed
7.707 km/s
True Right ascension
23h 54m 02s
True Declination
0° 00' 00"
Sunlit
Object was in full shadow at epoch
Visualization orbit readout
Latitude
Unknown
Longitude
Unknown
Altitude
Unknown
Speed
Unknown
Apparent Right ascension
Unknown
Apparent Declination
Unknown
Sunlit
N/A
Visualization observer readout
Local Sidereal Time
02:21:19
Azimuth
Unknown
Elevation
Unknown
Doppler factor
Unknown
Orbital elements
Apogee altitude
4,014.337 km
Perigee altitude
704.937 km
Semi-major axis
8,737.774 km
Eccentricity
0.18937
Inclination
51.5109°
RAAN
358.5095°
Arg. of periapsis
54.786°
True anomaly
305.29786°
Mean anomaly
321.589°
Eccentric anomaly
313.75132°
Mean motion
2.65731 °/min
Orbital period
135.48 mins
BSTAR
0.00034174
Loading maneuver chart data...
Computing Atmospheric mass density...
Loading historical data...
Loading historical data...
Loading historical data...
Loading historical data...
Loading historical data...
Loading historical data...
Loading historical data...

Documentation

Showing up to 5 results
|